Regional Weather Roundup
Issued by NWS

Home | Current Version | Previous Version | Graphics & Text | Print | Product List | Glossary Off
Versions: 1 2 3 4 5 6 7 8 9 10 11 12 13 14 15 16 17 18 19 20 21 22 23 24 25 26 27 28 29 30 31 32 33 34 35 36 37 38 39 40 41 42 43 44 45 46 47 48 49 50

004
ASUS43 KDTX 160910
RWRMI
MICHIGAN HOURLY REGIONAL WEATHER ROUNDUP
NATIONAL WEATHER SERVICE DETROIT/PONTIAC MI
400 AM EST TUE JAN 16 2018

NOTE: "FAIR" INDICATES FEW OR NO CLOUDS BELOW 12,000 FEET WITH NO
SIGNIFICANT WEATHER AND/OR OBSTRUCTION TO VISIBILITY.

MIZ047>049-052>055-059>063-066>070-074>076-081>083-161000-
SOUTHEAST LOWER MICHIGAN

CITY           SKY/WX    TMP DP  RH WIND       PRES   REMARKS
ADRIAN         CLOUDY    12   6  77 W10       30.35R WCI  -1
ALMA           FAIR       5   3  91 CALM      30.32S
ANN ARBOR      CLOUDY    14  10  84 SW8       30.31R WCI   3
BAD AXE        FLURRIES   3   0  86 CALM      30.29F
CARO           FOG        6   4  89 CALM      30.31R VSB 3/4
DETROIT CITY   CLOUDY    18  15  88 SW9       30.31R WCI   7
DETROIT        CLOUDY    17  13  84 SW12      30.32F WCI   4
FLINT          CLOUDY    14  11  87 N6        30.30R WCI   5
GROSSE ILE     MOCLDY    13  10  87 SW3       30.33R
HILLSDALE      FLURRIES  10   5  79 W7        30.29S WCI   0
HOWELL         LGT SNOW  16  14  90 SW7       30.29R WCI   7

CITY           SKY/WX    TMP DP  RH WIND       PRES   REMARKS
JACKSON        LGT SNOW  11   7  84 SW6       30.30R FOG     WCI   1
LAMBERTVILLE   FLURRIES  11   6  81 SW7       30.36R WCI   1
LANSING        LGT SNOW  15  14  95 W5        30.31R FOG     WCI   8
LAPEER         CLOUDY     3  -1  85 CALM      30.30R
MASON          CLOUDY    15   9  78 SW5       30.31R WCI   7
MONROE         FLURRIES  15   9  77 SW12      30.34R WCI   1
MT. CLEMENS    CLOUDY    19  19 100 CALM      30.29S
PONTIAC        LGT SNOW  18  16  92 W5        30.27R FOG     WCI  11
PORT HOPE        N/A     19  16  88 W6        30.27F WCI  11
PORT HURON     CLOUDY    14  12  92 CALM      30.31R FOG
TRI CITIES     FAIR       8   6  92 N5        30.32R FOG     WCI   0
MIDLAND        CLOUDY     5   2  86 CALM      30.32S
TROY           LGT SNOW  21  19  91 SW3       30.32R
SAGINAW HB     FOG        5   1  85 CALM      30.32R VSB 1
$$
MIZ043>046-050>051-056>058-064>065-071>073-077>080-161000-
SOUTHWEST LOWER MICHIGAN

CITY           SKY/WX    TMP DP  RH WIND       PRES   REMARKS
BATTLE CREEK   LGT SNOW  10   6  84 SW9       30.31R FOG     WCI  -3
BENTON HARBOR  LGT SNOW   7   1  76 S10       30.33S WCI  -8
BIG RAPIDS     CLOUDY    11   7  85 N3        30.29S
COLDWATER      CLOUDY     6   2  84 SW9       30.33S WCI  -8
FREMONT        CLOUDY    13   8  81 CALM      30.32R
HOLLAND        LGT SNOW  14  10  84 S7        30.31R FOG     WCI   4
GRAND RAPIDS   LGT SNOW  15  12  88 S6        30.31S FOG     WCI   6
IONIA          LGT SNOW  15  13  92 CALM      30.31R
KALAMAZOO      LGT SNOW  10   5  80 SW10      30.33R WCI  -4
LUDINGTON      CLOUDY    11   9  92 CALM      30.34S FOG
MARSHALL       LGT SNOW   9   4  83 SW7       30.31S WCI  -3
MOUNT PLEASANT CLOUDY    12   8  84 CALM      30.30S
MUSKEGON       LGT SNOW  12   7  80 N6        30.34R WCI   3
SOUTH HAVEN    LGT SNOW  10   5  80 S6        30.32S WCI   1
$$
MIZ016>042-161000-
NORTHERN LOWER MICHIGAN

CITY           SKY/WX    TMP DP  RH WIND       PRES   REMARKS
ALPENA         LGT SNOW  18  16  92 N10       30.34R FOG     WCI   6
BEAVER ISLAND  FAIR      14   9  80 NE6       30.40S WCI   5
BELLAIRE       FAIR      14  13  94 NE12      30.37S WCI   1
CADILLAC       FLURRIES   9   6  89 CALM      30.27R
CHARLEVOIX     FAIR      15  11  85 NE6       30.40S WCI   6
FRANKFORT      FAIR      17  14  87 CALM      30.36S
GAYLORD        CLOUDY    10  10 100 NE5       30.29S WCI   2
GRAYLING         N/A      9   6  87 N5        30.30S WCI   1
HARBOR SPRINGS CLOUDY    13   9  83 N6        30.37S WCI   4
HOUGHTON LAKE  CLOUDY    13  11  92 N5        30.28S WCI   5
MANISTEE       FAIR       3  -1  83 CALM      30.35R
OSCODA         LGT SNOW  18  16  90 N5        30.30R VSB 3/4 WCI  11
PELLSTON       FAIR       8   5  87 N7        30.39R WCI  -3
ROGERS CITY    LGT SNOW  17  13  87 NE8       30.37S WCI   6
TRAVERSE CITY  CLOUDY    19  13  77 NE10      30.35R WCI   7
$$
MIZ007>008-015-161000-
EASTERN UPPER MICHIGAN

CITY           SKY/WX    TMP DP  RH WIND       PRES   REMARKS
KINROSS        FLURRIES   6   4  91 N3        30.40S
MACKINAC ISLAN CLOUDY    13   8  81 NE12      30.39S WCI  -1
NEWBERRY       FAIR       6   6  97 N3        30.40S
S. S. MARIE    FAIR      11   4  73 NE6       30.40S WCI   1
MUNISING         N/A      2   0  91 S7        30.44R WCI -11
$$
MIZ004>006-011>014-085-161000-
CENTRAL UPPER MICHIGAN

CITY           SKY/WX    TMP DP  RH WIND       PRES   REMARKS
MANISTIQUE     FAIR       4   2  94 N6        30.42S WCI  -7
ESCANABA       FAIR       8   5  87 NW6       30.44R WCI  -2
MENOMINEE      FAIR      10   7  87 N9        30.43R WCI  -3
SAWYER-GWINN   FLURRIES   7   4  89 CALM      30.40S
$$
MIZ001>003-009>011-084-161000-
WESTERN UPPER MICHIGAN

CITY           SKY/WX    TMP DP  RH WIND       PRES   REMARKS
IRON MOUNTAIN  LGT SNOW   2  -3  80 CALM      30.40S
HOUGHTON       CLOUDY    19  12  74 N12       30.45S WCI   7
COPPER HARBOR    N/A     22  16  78 E8        30.47S WCI  12
IRONWOOD       LGT SNOW   9   7  92 SW3       30.48R FOG
$$

ABBREVIATIONS USED IN REMARKS
   TC - TEMPERATURE IN CELSIUS
  WCI - WIND CHILL INDEX
   HX - HEAT INDEX
  VSB - VISIBILITY





USA.gov is the U.S. government's official web portal to all federal, state and local government web resources and services.